2025 Cumberland 1A Sectional

November 01, 2025


Results by Austin Birch for ChampionChip247

Overall Finish List - Girls

Varsity - Girls

Varsity

Qualifying Teams: 6 Individuals: 10

O'All Place Score Bib No Name Team Time Pace Grade Qualifier
1 1 279 Isabella Keller Effingham (St. Anthony) 16:39.9 5:33/M 11 TM
2 2 454 Tessa Bowers Shelbyville 17:02.3 5:41/M 12 TM
3 3 573 Kate Foltz Tuscola 17:11.7 5:44/M 12 IND
4 4 361 Molly Farrell Marshall 17:36.8 5:52/M 12 TM
5 5 277 Aubrey Denning Effingham (St. Anthony) 17:37.2 5:52/M 11 TM
6 6 555 Mackenzie Pound Tolono (Unity) 18:04.8 6:02/M 12 TM
7 7 362 Madeleine Fox Marshall 18:14.8 6:05/M 11 TM
8 8 462 Leah Shoaff Shelbyville 18:28.8 6:10/M 9 TM
9 9 386 Macie Owen Monticello 18:35.2 6:12/M 10 IND
10 10 364 Grace Thompson Marshall 18:44.9 6:15/M 9 TM
11 413 Kendal Fleck Niantic (Sangamon Valley) 18:48.2 6:16/M 12 IND
12 11 291 Callie Richardson Fithian (Oakwood) 18:49.7 6:17/M 11 IND
13 12 578 Clara Knutson Urbana (University) 18:52.8 6:18/M 10 TM
14 13 406 Layna Marshall Newton 18:54.1 6:18/M 12 IND
15 283 Ellie Emberson Fisher 18:56.4 6:19/M 10 IND
16 14 282 Emeline Wines Effingham (St. Anthony) 19:05.2 6:22/M 10 TM
17 15 501 Julia Moody Sullivan 19:09.1 6:23/M 11 IND
18 16 460 Natalie Nohren Shelbyville 19:11.9 6:24/M 9 TM
19 17 482 Charlene Barbee St. Joseph (S.J.-Ogden) 19:13.1 6:24/M 9 TM
20 18 383 Taylor Mabry Monticello 19:15.7 6:25/M 11 IND
21 412 Hadley Fleck Niantic (Sangamon Valley) 19:21.4 6:27/M 9 IND
22 19 485 Grace Bressner St. Joseph (S.J.-Ogden) 19:22.7 6:28/M 10 TM
23 20 352 Maggie Schwab Litchfield 19:22.8 6:28/M 9 IND
24 21 186 Ruby Burton Arthur (A.-Lovington-Atwood-Hammond) 19:26.1 6:29/M 12
25 237 Leah Phipps Chrisman 19:39.0 6:33/M 12
26 22 486 Kyla Franckey St. Joseph (S.J.-Ogden) 19:41.8 6:34/M 11 TM
27 23 491 Tessa Walker St. Joseph (S.J.-Ogden) 19:43.3 6:34/M 10 TM
28 24 579 Janny Knutson Urbana (University) 19:44.2 6:35/M 9 TM
29 25 211 Kayla Clark Casey (C.-Westfield) 19:45.9 6:35/M 12
30 194 Natalie Thomason Bismarck (B.-Henning-Rossville-Alvin) 19:48.1 6:36/M 12
31 26 217 Madisen Callaway Cerro Gordo-Bement 19:48.9 6:36/M 10
32 27 190 Kimberly Krutsinger Arthur (A.-Lovington-Atwood-Hammond) 19:49.0 6:36/M 12
33 28 262 Lena Goebel Dieterich 19:49.1 6:36/M 11
34 29 464 Tessa Tomblin Shelbyville 19:55.0 6:38/M 9 TM
35 30 502 Aaliyah Osborn Sullivan 19:59.3 6:40/M 9
36 31 552 Brooklyn Mumm Tolono (Unity) 20:04.6 6:42/M 11 TM
37 32 401 Heather Bergbower Newton 20:16.0 6:45/M 9
38 33 405 Avery Geier Newton 20:20.1 6:47/M 10
39 34 384 Madison Morrow Monticello 20:29.4 6:50/M 11
40 209 Halle Bredel Carlinville 20:33.1 6:51/M 9
41 35 556 Mia Reifsteck Tolono (Unity) 20:36.0 6:52/M 10 TM
42 36 458 Laynie Lockart Shelbyville 20:36.2 6:52/M 11 TM
43 337 Lexi Brooke Lawrenceville 20:37.3 6:52/M 9
44 37 584 Ella Ylagan Urbana (University) 20:37.5 6:53/M 12 TM
45 38 483 Abigail Bello St. Joseph (S.J.-Ogden) 20:38.1 6:53/M 11 TM
46 39 582 Cadence Scheunemann Urbana (University) 20:39.0 6:53/M 11 TM
47 40 219 Sarah Hill Cerro Gordo-Bement 20:51.1 6:57/M 9
48 424 Hellie Barrett Paris 20:51.4 6:57/M 9
49 41 328 Paige Swank Gillespie 20:51.4 6:57/M 9
50 42 554 Carolina Popovics Tolono (Unity) 20:55.7 6:59/M 9 TM
51 309 Erin McCall Gibson City (G.C.-Melvin-Sibley) 21:02.8 7:01/M 9
52 43 490 Taylor Vaughn St. Joseph (S.J.-Ogden) 21:03.5 7:01/M 9 TM
53 44 580 Sofia MacDonald Urbana (University) 21:03.9 7:01/M 10 TM
54 45 184 Kayla Wernigk Armstrong 21:04.7 7:02/M 11
55 46 484 Allie Bott St. Joseph (S.J.-Ogden) 21:04.7 7:02/M 9 TM
56 47 353 Leighton Warchol Litchfield 21:08.3 7:03/M 11
57 48 437 Terynn Loftis Robinson 21:11.3 7:04/M 11
58 49 466 Kylie Wright Shelbyville 21:12.7 7:04/M 12 TM
59 50 558 Grace Wherley Tolono (Unity) 21:13.3 7:04/M 11 TM
60 51 363 Addie Nave Marshall 21:13.4 7:04/M 10 TM
61 52 183 Addyson Tholl Armstrong 21:15.8 7:05/M 10
62 53 286 Emily Lancaster Fithian (Oakwood) 21:16.3 7:05/M 9
63 54 285 Bracie Hird Fithian (Oakwood) 21:21.3 7:07/M 12
64 55 355 Rilynn Younker Litchfield 21:21.7 7:07/M 11
65 56 189 Sophia Johnson Arthur (A.-Lovington-Atwood-Hammond) 21:23.1 7:08/M 10
66 57 465 Sara Tynan Shelbyville 21:23.8 7:08/M 12 TM
67 58 408 Josie Vogt Newton 21:25.6 7:09/M 9
68 59 292 Taylor Wells Fithian (Oakwood) 21:26.2 7:09/M 10
69 60 188 Gwendolyn Herring Arthur (A.-Lovington-Atwood-Hammond) 21:26.5 7:09/M 9
70 61 350 Madison Betz Litchfield 21:35.0 7:12/M 9
71 62 358 Myah Boyd Marshall 21:37.7 7:13/M 11 TM
72 63 380 Olivia Gerdes Monticello 21:42.6 7:14/M 12
73 388 Mikky Wilson Moweaqua (Central A & M) 21:42.9 7:14/M 10
74 64 325 Caley Head Gillespie 21:43.5 7:15/M 9
75 390 Paula Hohn Neoga 21:43.9 7:15/M 11
76 229 Alex Anderson Champaign (St. Thomas More) 21:48.2 7:16/M 11
77 65 266 Violet Iffert Dieterich 21:48.2 7:16/M 9
78 66 192 Embrey Reardon Arthur (A.-Lovington-Atwood-Hammond) 21:57.9 7:19/M 11
79 67 581 Shriya Nagaraj Urbana (University) 22:05.0 7:22/M 12 TM
80 68 503 Avery Renfro Sullivan 22:06.8 7:22/M 10
81 341 Finley Hering Lawrenceville 22:07.1 7:22/M 9
82 518 Mary Jane (mj) Dennis Teutopolis 22:08.1 7:23/M 11
83 414 Kadence Rochkes Pana 22:11.1 7:24/M 10
84 69 549 Galina Fairbanks Tolono (Unity) 22:13.4 7:24/M 11 TM
85 233 Rina Tanigaki Champaign (St. Thomas More) 22:15.1 7:25/M 12
86 70 407 Nora Street Newton 22:16.1 7:25/M 9
87 71 284 Amber Betzwiser Fithian (Oakwood) 22:16.4 7:25/M 11
88 72 379 Sophie Burkybile Monticello 22:19.6 7:27/M 9
89 73 433 Karmyn Coffman Robinson 22:21.1 7:27/M 9
90 74 280 Nora Niebrugge Effingham (St. Anthony) 22:26.8 7:29/M 9 TM
91 75 438 Kira Williams Robinson 22:30.3 7:30/M 11
92 339 Laurel Buchanan Lawrenceville 22:30.6 7:30/M 11
93 76 216 Cassie Block Cerro Gordo-Bement 22:32.4 7:31/M 11
94 77 404 Kimberly Bierman Newton 22:34.0 7:31/M 9
95 78 387 Annie Robinson Monticello 22:35.4 7:32/M 11
96 79 381 Mckenzie Koester Monticello 22:41.6 7:34/M 9
97 338 Ellie Buchanan Lawrenceville 22:46.3 7:35/M 11
98 232 Ava Stark Champaign (St. Thomas More) 22:46.4 7:35/M 11
99 80 182 Aubrey Self Armstrong 22:50.6 7:37/M 12
100 519 Abigail Zane Teutopolis 22:53.1 7:38/M 10

Qualifying Teams: 6 Individuals: 10

O'All Place Score Bib No Name Team Time Pace Grade Qualifier
101 81 290 Taylor Remole Fithian (Oakwood) 23:04.0 7:41/M 11
102 82 553 Payten Niles Tolono (Unity) 23:05.4 7:42/M 10 TM
103 83 400 Shay Bennett Newton 23:12.4 7:44/M 12
104 178 Katie Tedrick Altamont 23:13.9 7:45/M 12
105 84 330 Nevaeh Thomas Gillespie 23:21.4 7:47/M 12
106 85 351 Darby Braasch Litchfield 23:34.7 7:52/M 12
107 86 260 Avery Bohnhoff Dieterich 23:38.5 7:53/M 10
108 87 214 Kaitlyn McKinney Casey (C.-Westfield) 23:38.7 7:53/M 12
109 88 434 Kaylin Doucet Robinson 23:40.7 7:54/M 9
110 89 583 Julia Smith Urbana (University) 23:43.7 7:55/M 12 TM
111 90 435 Audri Green Robinson 23:47.1 7:56/M 12
112 91 288 Zoe Moudy Fithian (Oakwood) 23:50.7 7:57/M 12
113 92 261 Callie Faller Dieterich 24:10.3 8:03/M 12
114 93 572 Bella Dueker Tuscola 24:14.9 8:05/M 11
115 94 278 Taylor Denning Effingham (St. Anthony) 24:16.2 8:05/M 9 TM
116 95 281 Nancy Ruholl Effingham (St. Anthony) 24:23.9 8:08/M 12 TM
117 96 574 Amelia Manus Tuscola 24:27.9 8:09/M 9
118 97 324 Lyla Drewel Gillespie 24:30.0 8:10/M 10
119 98 432 Alivia Bilyew Robinson 24:36.6 8:12/M 9
120 99 571 Hanna Carswell Tuscola 24:39.7 8:13/M 11
121 100 263 Bailey Hewkin Dieterich 24:47.1 8:16/M 11
122 101 269 Allie Wright Dieterich 24:48.0 8:16/M 9
123 102 326 Olivia Hitos Gillespie 24:54.0 8:18/M 10
124 103 180 Ryah Peters Armstrong 25:07.3 8:22/M 10
125 104 218 Lauren Hill Cerro Gordo-Bement 25:15.3 8:25/M 9
126 105 215 Amelia Washburn Casey (C.-Westfield) 25:18.8 8:26/M 9
127 106 212 Olivia Henderson Casey (C.-Westfield) 25:28.2 8:29/M 9
128 107 259 Allison Boerngen Dieterich 25:35.0 8:32/M 10
129 108 577 Sami Walker Tuscola 25:48.0 8:36/M 10
130 389 Zoie Randall Mt. Carmel 26:10.8 8:44/M 10
131 109 505 Miracle Wilson Sullivan 26:14.9 8:45/M 11
132 110 181 Cala Reifsteck Armstrong 26:17.5 8:46/M 12
133 111 576 Celeste Rebollo Tuscola 26:17.5 8:46/M 11
134 112 504 Kaylee Smith Sullivan 26:21.9 8:47/M 11
135 234 Elizabeth Withers-Sickles Champaign (St. Thomas More) 26:24.6 8:48/M 10
136 113 220 Rylan Petty Cerro Gordo-Bement 26:43.6 8:55/M 11
137 114 322 Chyla Crainick Gillespie 27:07.2 9:02/M 9
138 115 191 Ella Oye Arthur (A.-Lovington-Atwood-Hammond) 27:10.0 9:03/M 10
139 116 329 Madisyn Thomas Gillespie 27:42.5 9:14/M 10
140 117 179 Aleyah Carley Armstrong 28:08.7 9:23/M 11
141 118 213 Savannah Lyman Casey (C.-Westfield) 28:47.2 9:36/M 11
142 119 354 Breanna White Litchfield 29:55.4 9:58/M 10
143 120 187 Esmeralda Diaz Arthur (A.-Lovington-Atwood-Hammond) 30:12.5 10:04/M 11